Location: Augsburg
(48.3836°N, 10.8929°E)
Time: 16:17:37
(UTC+02:00)

ISS - Pass Details

Date: 18 May 2021
Orbit: 417 x 422 km, 51.6° (Epoch: 13 June)

Event Time Altitude Azimuth Distance (km) Brightness Sun altitude
Rises 22:52:24 0° 262° (W) 2,361 0.4 -15.0°
Reaches altitude 10° 22:54:32 10° 267° (W) 1,500 -0.5 -15.2°
Maximum altitude 22:57:51 57° 347° (NNW) 501 -3.1 -15.5°
Drops below altitude 10° 23:01:11 10° 68° (ENE) 1,506 -1.0 -15.8°
Sets 23:03:19 0° 72° (ENE) 2,372 -0.1 -16.0°
